San Antonio, TX

3:46 PM CST on February 14, 2016 (GMT -0600)
Stinson Municipal

Weather History for KSSF - August, 2014

Change the Weather History Date:

Wednesday, August 27, 2014

  Actual Average Record
Temperature  
Mean Temperature 86 °F -  
Max Temperature 99 °F 92 °F 108 °F (2011)
Min Temperature 75 °F 72 °F 72 °F (2002)
Cooling Degree Days 22    
Growing Degree Days 36 (Base 50)    
Moisture  
Dew Point 66 °F    
Average Humidity 55    
Maximum Humidity 85    
Minimum Humidity 26    
Precipitation  
Precipitation 0.00 in - - ()
Sea Level Pressure  
Sea Level Pressure 29.92 in    
Wind  
Wind Speed 5 mph (ENE)    
Max Wind Speed 12 mph    
Max Gust Speed -    
Visibility 10 miles    
Events      
Averages and records for this station are not official NWS values.
T = Trace of Precipitation, MM = Missing Value Source: NWS Daily Summary

Daily Weather History Graph

Daily Weather History Graph

Search for Another Location

Airport or City:

Trip Planner

Search our weather history database for the weather conditions in past years. The results will help you decide how hot, cold, wet, or windy it might be!

Date:

Astronomy

Aug. 27, 2014 Rise Set
Actual Time 7:08 AM CDT 8:01 PM CDT
Civil Twilight 6:44 AM CDT 8:25 PM CDT
Nautical Twilight 6:15 AM CDT 8:54 PM CDT
Astronomical Twilight 5:46 AM CDT 9:23 PM CDT
Moon 8:54 AM CDT (8/27) 9:08 PM CDT (8/27)
Length of Visible Light 13h 41m
Length of Day
12h 52m
Waxing Crescent, 4% of the Moon is Illuminated
Aug 27
Waxing Crescent
Sep 2
First Quarter
Sep 8
Full
Sep 15
Last Quarter
Sep 24
New

Hourly Weather History & Observations

Time (CDT) Temp. Heat Index Dew Point Humidity Pressure Visibility Wind Dir Wind Speed Gust Speed Precip Events Conditions
12:53 AM 82.0 °F 86.3 °F 71.1 °F 69% 29.96 in 10.0 mi SE 5.8 mph - N/A   Clear
1:53 AM 81.0 °F 84.9 °F 71.1 °F 72% 29.95 in 10.0 mi ESE 3.5 mph - N/A   Clear
2:53 AM 80.1 °F 83.6 °F 71.1 °F 74% 29.94 in 10.0 mi East 3.5 mph - N/A   Clear
3:53 AM 79.0 °F - 71.1 °F 77% 29.93 in 10.0 mi East 3.5 mph - N/A   Clear
4:53 AM 77.0 °F - 70.0 °F 79% 29.93 in 10.0 mi Calm Calm - N/A   Clear
5:53 AM 77.0 °F - 71.1 °F 82% 29.93 in 10.0 mi Calm Calm - N/A   Clear
6:53 AM 75.9 °F - 71.1 °F 85% 29.95 in 10.0 mi NNE 4.6 mph - N/A   Clear
7:53 AM 78.1 °F - 72.0 °F 81% 29.96 in 10.0 mi North 3.5 mph - N/A   Clear
8:53 AM 82.9 °F 88.0 °F 72.0 °F 69% 29.97 in 10.0 mi Variable 3.5 mph - N/A   Clear
10:53 AM 88.0 °F 92.1 °F 69.1 °F 53% 29.98 in 10.0 mi ENE 10.4 mph - N/A   Clear
11:53 AM 91.0 °F 95.2 °F 68.0 °F 47% 29.98 in 10.0 mi NE 10.4 mph - N/A   Partly Cloudy
12:53 PM 93.0 °F 96.4 °F 66.9 °F 42% 29.96 in 10.0 mi North 8.1 mph - N/A   Mostly Cloudy
2:53 PM 93.9 °F 95.6 °F 64.0 °F 37% 29.91 in 10.0 mi ENE 9.2 mph - N/A   Scattered Clouds
3:53 PM 98.1 °F 99.6 °F 63.0 °F 31% 29.88 in 10.0 mi NNE 5.8 mph - N/A   Partly Cloudy
4:53 PM 98.1 °F 98.1 °F 60.1 °F 28% 29.86 in 10.0 mi Variable 5.8 mph - N/A   Partly Cloudy
5:53 PM 98.1 °F 97.7 °F 59.0 °F 27% 29.85 in 10.0 mi ENE 8.1 mph - N/A   Partly Cloudy
6:53 PM 96.1 °F 94.5 °F 55.9 °F 26% 29.85 in 10.0 mi NE 10.4 mph - N/A   Clear
7:53 PM 93.0 °F 91.4 °F 55.9 °F 29% 29.86 in 10.0 mi East 8.1 mph - N/A   Clear
8:53 PM 90.0 °F 88.1 °F 55.9 °F 31% 29.88 in 10.0 mi East 5.8 mph - N/A   Clear
9:53 PM 87.1 °F 88.9 °F 64.9 °F 48% 29.90 in 10.0 mi ESE 11.5 mph - N/A   Clear
10:53 PM 84.9 °F 87.6 °F 66.9 °F 55% 29.91 in 10.0 mi ESE 9.2 mph - N/A   Clear
11:53 PM 82.9 °F 85.4 °F 66.9 °F 58% 29.92 in 10.0 mi ESE 6.9 mph - N/A   Clear